Home > Weather > Rajshahi > Past weeks

Flag for Bangladesh Weather for the Past 2 Weeks in Rajshahi, Bangladesh

Now
72 °F

Fog.


Feels Like: 72 °F
Forecast: 63 / 87 °F
Wind: 5 mph from Northeast

Location: Calcutta / Dum Dum

Current Time: Feb 13, 2016 at 9:44:09 AM

Latest Report: Feb 13, 2016 at 8:30 AM


Visibility: 1 mi

Pressure: 29.95 "Hg

Humidity: 78%

Dew point: 64 °F

Location of RajshahiLocation

Historic Weather in Rajshahi — Graph

°F

Rajshahi Temperature Yesterday

Maximum temperature yesterday: 86 °F (at 3:00 PM)
Minimum temperature yesterday: 73 °F (at 10:00 PM)
Average temperature yesterday: 79 °F

High & Low Weather Summary for the Past Weeks

 TemperatureHumidityPressure
High86 °F (Jan 31, 3:00 PM)100% (Jan 31, 2:00 AM)30.07 "Hg (Jan 31, 2:00 AM)
Low59 °F (Jan 30, 5:30 AM)27% (Feb 1, 1:30 PM)29.77 "Hg (Feb 11, 4:30 PM)
Average73 °F72%29.92 "Hg
* Reported Jan 29 8:00 AM — Feb 13 8:30 AM, Rajshahi, Weather by CustomWeather, © 2016

Note: Actual official high and low records may vary slightly from our data, if they occured in-between our weather recording intervals... More about our weather records

Advertising

Rajshahi Weather History for the Previous 24 Hours

 ConditionsComfort  
Time TempWeatherWind HumidityBarometerVisibility
8:30 AM
Sat, Feb 13
72 °FFog.5 mph78%29.95 "Hg1 mi
8:00 AM70 °FFog.5 mph83%29.92 "Hg1 mi
7:30 AM68 °FFog.5 mph88%29.92 "Hg1 mi
7:00 AM68 °FFog.5 mph88%29.92 "Hg1 mi
6:30 AM68 °FFog.3 mph88%29.89 "Hg1 mi
6:00 AM70 °FFog.3 mph88%29.89 "Hg1 mi
5:30 AM70 °FFog.3 mph88%29.86 "Hg1 mi
5:00 AM70 °FFog.3 mph88%29.86 "Hg1 mi
4:30 AM72 °FFog.5 mph88%29.86 "Hg1 mi
4:00 AM72 °FFog.6 mph88%29.86 "Hg1 mi
3:30 AM70 °FFog.6 mph88%29.86 "Hg1 mi
3:00 AM70 °FFog.6 mph94%29.86 "Hg1 mi
2:30 AM70 °FFog.3 mph94%29.86 "Hg1 mi
2:00 AM70 °FFog.3 mph94%29.89 "Hg1 mi
1:30 AM70 °FFog.5 mph94%29.89 "Hg1 mi
1:00 AM70 °FFog.No wind88%29.89 "Hg1 mi
12:30 AM70 °FFog.No wind88%29.89 "Hg1 mi
12:00 AM72 °FFog.No wind78%29.89 "Hg1 mi
11:30 PM
Fri, Feb 12
73 °FFog.No wind74%29.89 "Hg1 mi
11:00 PM73 °FFog.No wind74%29.86 "Hg1 mi
10:30 PM73 °FFog.No wind74%29.86 "Hg1 mi
10:00 PM73 °FFog.No wind74%29.86 "Hg1 mi
9:30 PM75 °FHaze.5 mph69%29.86 "Hg1 mi
9:00 PM75 °FHaze.No wind69%29.86 "Hg1 mi
8:30 PM75 °FHaze.No wind69%29.86 "Hg1 mi
8:00 PM77 °FHaze.5 mph61%29.86 "Hg1 mi
7:30 PM77 °FClear.5 mph57%29.83 "Hg1 mi
7:00 PM79 °FClear.5 mph54%29.83 "Hg1 mi
6:30 PM81 °FClear.5 mph51%29.83 "Hg1 mi
6:00 PM81 °FPassing clouds.5 mph51%29.80 "Hg1 mi
5:30 PM82 °FPassing clouds.7 mph48%29.80 "Hg1 mi
5:00 PM84 °FScattered clouds.5 mph55%29.80 "Hg1 mi
4:30 PM84 °FScattered clouds.5 mph48%29.80 "Hg2 mi
4:00 PM84 °FScattered clouds.7 mph48%29.80 "Hg2 mi
3:30 PM84 °FScattered clouds.9 mph48%29.80 "Hg2 mi
3:00 PM86 °FScattered clouds.5 mph49%29.80 "Hg2 mi
2:30 PM84 °FScattered clouds.9 mph55%29.80 "Hg2 mi
2:00 PM84 °FScattered clouds.6 mph58%29.80 "Hg2 mi
1:30 PM84 °FBroken clouds.6 mph66%29.83 "Hg2 mi
1:00 PM84 °FBroken clouds.8 mph70%29.83 "Hg2 mi
12:30 PM82 °FBroken clouds.7 mph74%29.86 "Hg1 mi
12:00 PM82 °FBroken clouds.6 mph79%29.86 "Hg1 mi
11:30 AM81 °FBroken clouds.7 mph84%29.89 "Hg1 mi
11:00 AM81 °FBroken clouds.8 mph84%29.89 "Hg1 mi
10:30 AM81 °FBroken clouds.6 mph84%29.89 "Hg1 mi
10:00 AM79 °FBroken clouds.6 mph84%29.89 "Hg1 mi
9:30 AM79 °FBroken clouds.6 mph84%29.89 "Hg1 mi
9:00 AM77 °FBroken clouds.6 mph89%29.89 "Hg1 mi
Weather by CustomWeather, © 2016

See weather overviewHow to use our weather pages